TimeEDT,TemperatureF,Dew PointF,Humidity,Sea Level PressureIn,VisibilityMPH,Wind Direction,Wind SpeedMPH,Gust SpeedMPH,PrecipitationIn,Events,Conditions,WindDirDegrees,DateUTC
12:18 AM,60.8,55.4,82,30.06,9.0,NNE,17.3,27.6,N/A,,Overcast,30,2013-05-05 04:18:00
12:43 AM,60.8,55.4,82,30.06,9.0,NE,19.6,27.6,N/A,,Overcast,40,2013-05-05 04:43:00
12:56 AM,60.1,55.0,83,30.07,9.0,NE,19.6,27.6,N/A,,Overcast,40,2013-05-05 04:56:00
1:56 AM,61.0,55.9,83,30.04,8.0,NE,20.7,27.6,N/A,,Overcast,40,2013-05-05 05:56:00
2:56 AM,61.0,57.0,87,30.02,8.0,NE,21.9,28.8,N/A,,Overcast,40,2013-05-05 06:56:00
3:35 AM,60.8,55.4,82,30.01,8.0,NE,19.6,28.8,N/A,,Overcast,40,2013-05-05 07:35:00
3:49 AM,60.8,55.4,82,30.01,8.0,NE,18.4,-,N/A,,Overcast,40,2013-05-05 07:49:00
3:56 AM,61.0,55.9,83,30.02,8.0,NE,19.6,26.5,N/A,,Overcast,50,2013-05-05 07:56:00
4:56 AM,61.0,57.0,87,30.01,8.0,NE,20.7,27.6,N/A,,Overcast,40,2013-05-05 08:56:00
5:56 AM,61.0,57.0,87,30.01,8.0,NE,21.9,31.1,N/A,,Mostly Cloudy,50,2013-05-05 09:56:00
6:56 AM,61.0,57.9,90,30.03,7.0,NE,21.9,27.6,N/A,,Overcast,50,2013-05-05 10:56:00
7:56 AM,62.1,57.9,86,30.04,7.0,NE,23.0,29.9,N/A,,Mostly Cloudy,50,2013-05-05 11:56:00
8:40 AM,62.6,59.0,88,30.03,7.0,NE,24.2,32.2,N/A,,Overcast,50,2013-05-05 12:40:00
8:56 AM,63.0,59.0,87,30.05,7.0,NE,21.9,29.9,N/A,,Overcast,50,2013-05-05 12:56:00
9:56 AM,64.0,60.1,87,30.05,7.0,NE,20.7,27.6,N/A,,Mostly Cloudy,50,2013-05-05 13:56:00
10:56 AM,64.0,60.1,87,30.06,6.0,ENE,20.7,27.6,N/A,,Mostly Cloudy,60,2013-05-05 14:56:00
11:56 AM,64.9,62.1,90,30.05,6.0,NE,19.6,26.5,0.00,Rain,Light Rain,50,2013-05-05 15:56:00
12:56 PM,66.0,61.0,84,30.04,7.0,NE,19.6,26.5,0.00,,Mostly Cloudy,50,2013-05-05 16:56:00
1:15 PM,64.4,60.8,88,30.03,7.0,NE,19.6,27.6,N/A,,Mostly Cloudy,50,2013-05-05 17:15:00
1:56 PM,66.0,61.0,84,30.04,7.0,NE,19.6,28.8,N/A,,Scattered Clouds,50,2013-05-05 17:56:00
2:56 PM,66.9,62.1,84,30.04,7.0,ENE,19.6,26.5,N/A,,Partly Cloudy,60,2013-05-05 18:56:00
3:56 PM,68.0,63.0,84,30.03,8.0,ENE,17.3,-,N/A,,Clear,60,2013-05-05 19:56:00
4:56 PM,66.0,62.1,87,30.02,8.0,ENE,20.7,26.5,N/A,,Partly Cloudy,60,2013-05-05 20:56:00
5:06 PM,66.2,60.8,83,30.01,7.0,ENE,21.9,27.6,N/A,,Partly Cloudy,60,2013-05-05 21:06:00
5:56 PM,64.9,61.0,87,30.02,8.0,ENE,20.7,28.8,N/A,,Clear,60,2013-05-05 21:56:00
6:26 PM,64.4,62.6,94,30.01,8.0,ENE,18.4,26.5,N/A,,Mostly Cloudy,60,2013-05-05 22:26:00
6:56 PM,64.9,62.1,90,30.01,7.0,ENE,18.4,26.5,N/A,,Mostly Cloudy,60,2013-05-05 22:56:00
7:21 PM,64.4,62.6,94,29.99,6.0,ENE,21.9,28.8,N/A,,Mostly Cloudy,60,2013-05-05 23:21:00
7:56 PM,64.9,61.0,87,30.01,6.0,ENE,21.9,28.8,N/A,,Mostly Cloudy,60,2013-05-05 23:56:00
8:29 PM,64.4,62.6,94,30.01,8.0,ENE,18.4,26.5,N/A,,Scattered Clouds,60,2013-05-06 00:29:00
8:56 PM,64.9,62.1,90,30.03,8.0,ENE,15.0,23.0,N/A,,Partly Cloudy,60,2013-05-06 00:56:00
9:56 PM,64.9,63.0,93,30.02,8.0,ENE,16.1,-,N/A,,Clear,60,2013-05-06 01:56:00
10:56 PM,64.9,63.0,93,30.02,9.0,ENE,13.8,-,N/A,,Partly Cloudy,70,2013-05-06 02:56:00
11:56 PM,66.0,62.1,87,30.02,9.0,East,10.4,-,N/A,,Scattered Clouds,80,2013-05-06 03:56:00